Tracking 30970 objects as of 3-Jul-2025
HD Live streaming from Space Station
objects crossing your sky now

N-2 R/B(2)

Track N-2 R/B(2) now!
10-day predictions


NORAD ID: 12787
Int'l Code: 1981-012C
Perigee: 214.1 km
Apogee: 17,768.8 km
Inclination: 28.1 °
Period: 315.8 minutes
Semi major axis: 15362 km
RCS: 2.6865 m2 (large)
Launch date: February 11, 1981
Source: Japan (JPN)
Launch site: TANEGASHIMA SPACE CENTER (TNSTA)

Note: This is a ROCKET BODY
Your satellite tracking list
Your tracking list is empty




NASA's NSSDC Master Catalog

Two Line Element Set (TLE):
1 12787U 81012C   25183.38421085  .00027999  00000-0  92862-3 0  9993
2 12787  28.0560 303.6854 5713489 350.5105   2.0997  4.55944939527938
Source of the keplerian elements: AFSPC